Year,Month,Day,Hour,Minute,Value (Times are PST for temperature in C)
2006,12,13,00,00,6.40
2006,12,13,00,01,6.40
2006,12,13,00,02,6.30
2006,12,13,00,03,6.30
2006,12,13,00,04,6.30
2006,12,13,00,05,6.30
2006,12,13,00,06,6.40
2006,12,13,00,07,6.40
2006,12,13,00,08,6.40
2006,12,13,00,09,6.40
2006,12,13,00,10,6.40
2006,12,13,00,11,6.40
2006,12,13,00,12,6.40
2006,12,13,00,13,6.40
2006,12,13,00,14,6.40
2006,12,13,00,15,6.50
2006,12,13,00,16,6.50
2006,12,13,00,17,6.50
2006,12,13,00,18,6.50
2006,12,13,00,19,6.50
2006,12,13,00,20,6.50
2006,12,13,00,21,6.50
2006,12,13,00,22,6.50
2006,12,13,00,23,6.50
2006,12,13,00,24,6.50
2006,12,13,00,25,6.50
2006,12,13,00,26,6.50
2006,12,13,00,27,6.50
2006,12,13,00,28,6.50
2006,12,13,00,29,6.50
2006,12,13,00,30,6.50
2006,12,13,00,31,6.50
2006,12,13,00,32,6.50
2006,12,13,00,33,6.50
2006,12,13,00,34,6.60
2006,12,13,00,35,6.60
2006,12,13,00,36,6.60
2006,12,13,00,37,6.60
2006,12,13,00,38,6.60
2006,12,13,00,39,6.60
2006,12,13,00,40,6.60
2006,12,13,00,41,6.60
2006,12,13,00,42,6.60
2006,12,13,00,43,6.60
2006,12,13,00,44,6.60
2006,12,13,00,45,6.60
2006,12,13,00,46,6.60
2006,12,13,00,47,6.60
2006,12,13,00,48,6.60
2006,12,13,00,49,6.60
2006,12,13,00,50,6.60
2006,12,13,00,51,6.60
2006,12,13,00,52,6.60
2006,12,13,00,53,6.60
2006,12,13,00,54,6.60
2006,12,13,00,55,6.60
2006,12,13,00,56,6.60
2006,12,13,00,57,6.60
2006,12,13,00,58,6.60
2006,12,13,00,59,6.70
2006,12,13,01,00,6.70
2006,12,13,01,01,6.70
2006,12,13,01,02,6.70
2006,12,13,01,03,6.70
2006,12,13,01,04,6.70
2006,12,13,01,05,6.70
2006,12,13,01,06,6.70
2006,12,13,01,07,6.70
2006,12,13,01,08,6.70
2006,12,13,01,09,6.70
2006,12,13,01,10,6.70
2006,12,13,01,11,6.70
2006,12,13,01,12,6.70
2006,12,13,01,13,6.70
2006,12,13,01,14,6.70
2006,12,13,01,15,6.70
2006,12,13,01,16,6.70
2006,12,13,01,17,6.70
2006,12,13,01,18,6.70
2006,12,13,01,19,6.70
2006,12,13,01,20,6.70
2006,12,13,01,21,6.70
2006,12,13,01,22,6.70
2006,12,13,01,23,6.70
2006,12,13,01,24,6.70
2006,12,13,01,25,6.80
2006,12,13,01,26,6.80
2006,12,13,01,27,6.80
2006,12,13,01,28,6.80
2006,12,13,01,29,6.80
2006,12,13,01,30,6.80
2006,12,13,01,31,6.80
2006,12,13,01,32,6.80
2006,12,13,01,33,6.80
2006,12,13,01,34,6.80
2006,12,13,01,35,6.80
2006,12,13,01,36,6.90
2006,12,13,01,37,6.90
2006,12,13,01,38,6.90
2006,12,13,01,39,6.90
2006,12,13,01,40,6.90
2006,12,13,01,41,6.90
2006,12,13,01,42,6.90
2006,12,13,01,43,6.90
2006,12,13,01,44,6.90
2006,12,13,01,45,6.90
2006,12,13,01,46,6.90
2006,12,13,01,47,6.90
2006,12,13,01,48,6.90
2006,12,13,01,49,6.90
2006,12,13,01,50,6.90
2006,12,13,01,51,6.90
2006,12,13,01,52,6.90
2006,12,13,01,53,6.90
2006,12,13,01,54,7.00
2006,12,13,01,55,7.00
2006,12,13,01,56,7.00
2006,12,13,01,57,7.00
2006,12,13,01,58,7.00
2006,12,13,01,59,7.00
2006,12,13,02,00,7.00
2006,12,13,02,01,7.10
2006,12,13,02,02,7.10
2006,12,13,02,03,7.10
2006,12,13,02,04,7.10
2006,12,13,02,05,7.10
2006,12,13,02,06,7.10
2006,12,13,02,07,7.10
2006,12,13,02,08,7.10
2006,12,13,02,09,7.10
2006,12,13,02,10,7.20
2006,12,13,02,11,7.20
2006,12,13,02,12,7.20
2006,12,13,02,13,7.20
2006,12,13,02,14,7.20
2006,12,13,02,15,7.20
2006,12,13,02,16,7.20
2006,12,13,02,17,7.20
2006,12,13,02,18,7.20
2006,12,13,02,19,7.20
2006,12,13,02,20,7.20
2006,12,13,02,21,7.20
2006,12,13,02,22,7.20
2006,12,13,02,23,7.20
2006,12,13,02,24,7.20
2006,12,13,02,25,7.20
2006,12,13,02,26,7.20
2006,12,13,02,27,7.20
2006,12,13,02,28,7.20
2006,12,13,02,29,7.20
2006,12,13,02,30,7.30
2006,12,13,02,31,7.30
2006,12,13,02,32,7.30
2006,12,13,02,33,7.30
2006,12,13,02,34,7.30
2006,12,13,02,35,7.30
2006,12,13,02,36,7.30
2006,12,13,02,37,7.30
2006,12,13,02,38,7.30
2006,12,13,02,39,7.40
2006,12,13,02,40,7.40
2006,12,13,02,41,7.50
2006,12,13,02,42,7.50
2006,12,13,02,43,7.60
2006,12,13,02,44,7.80
2006,12,13,02,45,7.80
2006,12,13,02,46,7.90
2006,12,13,02,47,8.00
2006,12,13,02,48,8.00
2006,12,13,02,49,8.10
2006,12,13,02,50,8.10
2006,12,13,02,51,8.10
2006,12,13,02,52,8.20
2006,12,13,02,53,8.20
2006,12,13,02,54,8.20
2006,12,13,02,55,8.20
2006,12,13,02,56,8.30
2006,12,13,02,57,8.30
2006,12,13,02,58,8.30
2006,12,13,02,59,8.30
2006,12,13,03,00,8.40
2006,12,13,03,01,8.40
2006,12,13,03,02,8.50
2006,12,13,03,03,8.50
2006,12,13,03,04,8.60
2006,12,13,03,05,8.60
2006,12,13,03,06,8.60
2006,12,13,03,07,8.60
2006,12,13,03,08,8.60
2006,12,13,03,09,8.60
2006,12,13,03,10,8.60
2006,12,13,03,11,8.60
2006,12,13,03,12,8.50
2006,12,13,03,13,8.50
2006,12,13,03,14,8.40
2006,12,13,03,15,8.40
2006,12,13,03,16,8.50
2006,12,13,03,17,8.60
2006,12,13,03,18,8.70
2006,12,13,03,19,8.70
2006,12,13,03,20,8.80
2006,12,13,03,21,9.00
2006,12,13,03,22,9.10
2006,12,13,03,23,9.10
2006,12,13,03,24,9.20
2006,12,13,03,25,9.20
2006,12,13,03,26,9.30
2006,12,13,03,27,9.30
2006,12,13,03,28,9.30
2006,12,13,03,29,9.40
2006,12,13,03,30,9.40
2006,12,13,03,31,9.40
2006,12,13,03,32,9.30
2006,12,13,03,33,9.30
2006,12,13,03,34,9.30
2006,12,13,03,35,9.30
2006,12,13,03,36,9.40
2006,12,13,03,37,9.40
2006,12,13,03,38,9.60
2006,12,13,03,39,9.60
2006,12,13,03,40,9.70
2006,12,13,03,41,9.70
2006,12,13,03,42,9.70
2006,12,13,03,43,9.70
2006,12,13,03,44,9.70
2006,12,13,03,45,9.70
2006,12,13,03,46,9.70
2006,12,13,03,47,9.70
2006,12,13,03,48,9.70
2006,12,13,03,49,9.80
2006,12,13,03,50,9.80
2006,12,13,03,51,9.80
2006,12,13,03,52,9.80
2006,12,13,03,53,9.90
2006,12,13,03,54,9.90
2006,12,13,03,55,9.90
2006,12,13,03,56,9.90
2006,12,13,03,57,9.80
2006,12,13,03,58,9.80
2006,12,13,03,59,9.70
2006,12,13,04,00,9.60
2006,12,13,04,01,9.60
2006,12,13,04,02,9.50
2006,12,13,04,03,9.40
2006,12,13,04,04,9.30
2006,12,13,04,05,9.40
2006,12,13,04,06,9.40
2006,12,13,04,07,9.40
2006,12,13,04,08,9.40
2006,12,13,04,09,9.30
2006,12,13,04,10,9.30
2006,12,13,04,11,9.30
2006,12,13,04,12,9.40
2006,12,13,04,13,9.30
2006,12,13,04,14,9.30
2006,12,13,04,15,9.30
2006,12,13,04,16,9.30
2006,12,13,04,17,9.20
2006,12,13,04,18,9.20
2006,12,13,04,19,9.20
2006,12,13,04,20,9.30
2006,12,13,04,21,9.30
2006,12,13,04,22,9.20
2006,12,13,04,23,9.20
2006,12,13,04,24,9.20
2006,12,13,04,25,9.30
2006,12,13,04,26,9.30
2006,12,13,04,27,9.30
2006,12,13,04,28,9.30
2006,12,13,04,29,9.30
2006,12,13,04,30,9.30
2006,12,13,04,31,9.30
2006,12,13,04,32,9.30
2006,12,13,04,33,9.30
2006,12,13,04,34,9.30
2006,12,13,04,35,9.20
2006,12,13,04,36,9.10
2006,12,13,04,37,9.10
2006,12,13,04,38,9.00
2006,12,13,04,39,9.00
2006,12,13,04,40,8.90
2006,12,13,04,41,8.90
2006,12,13,04,42,8.90
2006,12,13,04,43,9.00
2006,12,13,04,44,9.00
2006,12,13,04,45,9.00
2006,12,13,04,46,9.00
2006,12,13,04,47,9.00
2006,12,13,04,48,9.10
2006,12,13,04,49,9.10
2006,12,13,04,50,9.10
2006,12,13,04,51,9.10
2006,12,13,04,52,9.10
2006,12,13,04,53,9.10
2006,12,13,04,54,9.00
2006,12,13,04,55,9.00
2006,12,13,04,56,8.90
2006,12,13,04,57,8.90
2006,12,13,04,58,8.90
2006,12,13,04,59,8.90
2006,12,13,05,00,8.90
2006,12,13,05,01,8.90
2006,12,13,05,02,8.90
2006,12,13,05,03,8.90
2006,12,13,05,04,8.90
2006,12,13,05,05,8.90
2006,12,13,05,06,8.90
2006,12,13,05,07,8.80
2006,12,13,05,08,8.90
2006,12,13,05,09,8.90
2006,12,13,05,10,8.90
2006,12,13,05,11,9.00
2006,12,13,05,12,9.10
2006,12,13,05,13,9.10
2006,12,13,05,14,9.10
2006,12,13,05,15,9.10
2006,12,13,05,16,9.10
2006,12,13,05,17,9.10
2006,12,13,05,18,9.10
2006,12,13,05,19,9.20
2006,12,13,05,20,9.20
2006,12,13,05,21,9.30
2006,12,13,05,22,9.30
2006,12,13,05,23,9.30
2006,12,13,05,24,9.30
2006,12,13,05,25,9.30
2006,12,13,05,26,9.30
2006,12,13,05,27,9.30
2006,12,13,05,28,9.20
2006,12,13,05,29,9.20
2006,12,13,05,30,9.10
2006,12,13,05,31,9.10
2006,12,13,05,32,9.10
2006,12,13,05,33,9.20
2006,12,13,05,34,9.20
2006,12,13,05,35,9.20
2006,12,13,05,36,9.10
2006,12,13,05,37,9.10
2006,12,13,05,38,9.10
2006,12,13,05,39,9.00
2006,12,13,05,40,9.00
2006,12,13,05,41,9.00
2006,12,13,05,42,9.00
2006,12,13,05,43,9.10
2006,12,13,05,44,9.00
2006,12,13,05,45,9.00
2006,12,13,05,46,9.00
2006,12,13,05,47,9.00
2006,12,13,05,48,8.90
2006,12,13,05,49,8.90
2006,12,13,05,50,8.90
2006,12,13,05,51,8.90
2006,12,13,05,52,8.90
2006,12,13,05,53,8.90
2006,12,13,05,54,8.90
2006,12,13,05,55,8.90
2006,12,13,05,56,8.90
2006,12,13,05,57,8.90
2006,12,13,05,58,8.90
2006,12,13,05,59,8.80
2006,12,13,06,00,8.80
2006,12,13,06,01,8.80
2006,12,13,06,02,8.80
2006,12,13,06,03,8.80
2006,12,13,06,04,8.70
2006,12,13,06,05,8.70
2006,12,13,06,06,8.70
2006,12,13,06,07,8.80
2006,12,13,06,08,8.80
2006,12,13,06,09,8.80
2006,12,13,06,10,8.90
2006,12,13,06,11,8.90
2006,12,13,06,12,8.80
2006,12,13,06,13,8.90
2006,12,13,06,14,8.90
2006,12,13,06,15,9.00
2006,12,13,06,16,9.10
2006,12,13,06,17,9.10
2006,12,13,06,18,9.00
2006,12,13,06,19,9.00
2006,12,13,06,20,8.90
2006,12,13,06,21,8.90
2006,12,13,06,22,8.90
2006,12,13,06,23,8.80
2006,12,13,06,24,8.80
2006,12,13,06,25,8.80
2006,12,13,06,26,8.90
2006,12,13,06,27,8.90
2006,12,13,06,28,8.90
2006,12,13,06,29,8.90
2006,12,13,06,30,8.90
2006,12,13,06,31,8.80
2006,12,13,06,32,8.80
2006,12,13,06,33,8.80
2006,12,13,06,34,8.90
2006,12,13,06,35,8.90
2006,12,13,06,36,8.90
2006,12,13,06,37,8.90
2006,12,13,06,38,9.00
2006,12,13,06,39,9.00
2006,12,13,06,40,9.00
2006,12,13,06,41,9.00
2006,12,13,06,42,8.90
2006,12,13,06,43,8.90
2006,12,13,06,44,8.90
2006,12,13,06,45,8.90
2006,12,13,06,46,8.90
2006,12,13,06,47,8.90
2006,12,13,06,48,9.00
2006,12,13,06,49,9.10
2006,12,13,06,50,9.10
2006,12,13,06,51,9.10
2006,12,13,06,52,9.10
2006,12,13,06,53,8.90
2006,12,13,06,54,8.90
2006,12,13,06,55,8.80
2006,12,13,06,56,8.80
2006,12,13,06,57,8.80
2006,12,13,06,58,8.80
2006,12,13,06,59,8.80
2006,12,13,07,00,8.80
2006,12,13,07,01,8.80
2006,12,13,07,02,8.80
2006,12,13,07,03,8.80
2006,12,13,07,04,8.70
2006,12,13,07,05,8.60
2006,12,13,07,06,8.60
2006,12,13,07,07,8.50
2006,12,13,07,08,8.50
2006,12,13,07,09,8.50
2006,12,13,07,10,8.60
2006,12,13,07,11,8.60
2006,12,13,07,12,8.60
2006,12,13,07,13,8.60
2006,12,13,07,14,8.60
2006,12,13,07,15,8.60
2006,12,13,07,16,8.60
2006,12,13,07,17,8.60
2006,12,13,07,18,8.50
2006,12,13,07,19,8.50
2006,12,13,07,20,8.50
2006,12,13,07,21,8.60
2006,12,13,07,22,8.60
2006,12,13,07,23,8.60
2006,12,13,07,24,8.60
2006,12,13,07,25,8.60
2006,12,13,07,26,8.60
2006,12,13,07,27,8.60
2006,12,13,07,28,8.60
2006,12,13,07,29,8.60
2006,12,13,07,30,8.70
2006,12,13,07,31,8.70
2006,12,13,07,32,8.70
2006,12,13,07,33,8.80
2006,12,13,07,34,8.90
2006,12,13,07,35,8.90
2006,12,13,07,36,9.00
2006,12,13,07,37,8.90
2006,12,13,07,38,9.00
2006,12,13,07,39,9.00
2006,12,13,07,40,9.00
2006,12,13,07,41,9.00
2006,12,13,07,42,9.00
2006,12,13,07,43,9.00
2006,12,13,07,44,9.00
2006,12,13,07,45,9.00
2006,12,13,07,46,9.10
2006,12,13,07,47,9.20
2006,12,13,07,48,9.20
2006,12,13,07,49,9.20
2006,12,13,07,50,9.30
2006,12,13,07,51,9.20
2006,12,13,07,52,9.20
2006,12,13,07,53,9.30
2006,12,13,07,54,9.30
2006,12,13,07,55,9.30
2006,12,13,07,56,9.30
2006,12,13,07,57,9.30
2006,12,13,07,58,9.30
2006,12,13,07,59,9.30
2006,12,13,08,00,9.20
2006,12,13,08,01,9.10
2006,12,13,08,02,9.00
2006,12,13,08,03,9.00
2006,12,13,08,04,9.00
2006,12,13,08,05,9.00
2006,12,13,08,06,9.10
2006,12,13,08,07,9.10
2006,12,13,08,08,9.10
2006,12,13,08,09,9.10
2006,12,13,08,10,9.00
2006,12,13,08,11,9.00
2006,12,13,08,12,9.00
2006,12,13,08,13,9.10
2006,12,13,08,14,9.10
2006,12,13,08,15,9.10
2006,12,13,08,16,9.10
2006,12,13,08,17,9.10
2006,12,13,08,18,9.20
2006,12,13,08,19,9.20
2006,12,13,08,20,9.20
2006,12,13,08,21,9.20
2006,12,13,08,22,9.10
2006,12,13,08,23,9.10
2006,12,13,08,24,9.10
2006,12,13,08,25,9.00
2006,12,13,08,26,9.00
2006,12,13,08,27,9.00
2006,12,13,08,28,9.00
2006,12,13,08,29,9.00
2006,12,13,08,30,9.00
2006,12,13,08,31,9.00
2006,12,13,08,32,9.00
2006,12,13,08,33,8.90
2006,12,13,08,34,8.90
2006,12,13,08,35,8.90
2006,12,13,08,36,8.90
2006,12,13,08,37,9.00
2006,12,13,08,38,9.10
2006,12,13,08,39,9.30
2006,12,13,08,40,9.40
2006,12,13,08,41,9.40
2006,12,13,08,42,9.30
2006,12,13,08,43,9.30
2006,12,13,08,44,9.30
2006,12,13,08,45,9.30
2006,12,13,08,46,9.40
2006,12,13,08,47,9.40
2006,12,13,08,48,9.50
2006,12,13,08,49,9.50
2006,12,13,08,50,9.50
2006,12,13,08,51,9.40
2006,12,13,08,52,9.50
2006,12,13,08,53,9.50
2006,12,13,08,54,9.50
2006,12,13,08,55,9.50
2006,12,13,08,56,9.40
2006,12,13,08,57,9.40
2006,12,13,08,58,9.30
2006,12,13,08,59,9.30
2006,12,13,09,00,9.30
2006,12,13,09,01,9.30
2006,12,13,09,02,9.30
2006,12,13,09,03,9.20
2006,12,13,09,04,9.20
2006,12,13,09,05,9.20
2006,12,13,09,06,9.20
2006,12,13,09,07,9.30
2006,12,13,12,00,9.30
2006,12,13,12,01,9.30
2006,12,13,12,10,9.30
2006,12,13,12,11,9.30
2006,12,13,12,12,9.30
2006,12,13,12,13,9.30
2006,12,13,12,14,9.30
2006,12,13,12,15,9.30
2006,12,13,12,16,9.30
2006,12,13,12,17,9.30
2006,12,13,12,18,9.30
2006,12,13,12,19,9.30
2006,12,13,12,20,9.30
2006,12,13,12,21,9.20
2006,12,13,12,22,9.30
2006,12,13,12,23,9.30
2006,12,13,12,24,9.30
2006,12,13,12,25,9.30
2006,12,13,12,26,9.40
2006,12,13,12,29,9.40
2006,12,13,12,30,9.40
2006,12,13,12,31,9.40
2006,12,13,12,32,9.40
2006,12,13,12,33,9.40
2006,12,13,12,34,9.40
2006,12,13,12,35,9.40
2006,12,13,12,36,9.40
2006,12,13,12,37,9.40
2006,12,13,12,38,9.40
2006,12,13,12,39,9.40
2006,12,13,12,40,9.40
2006,12,13,12,41,9.40
2006,12,13,12,42,9.40
2006,12,13,12,43,9.40
2006,12,13,12,44,9.40
2006,12,13,12,45,9.40
2006,12,13,12,46,9.40
2006,12,13,12,47,9.40
2006,12,13,12,48,9.40
2006,12,13,12,49,9.40
2006,12,13,12,50,9.50
2006,12,13,12,51,9.50
2006,12,13,12,52,9.50
2006,12,13,12,53,9.60
2006,12,13,12,54,9.50
2006,12,13,12,55,9.50
2006,12,13,12,56,9.60
2006,12,13,12,57,9.60
2006,12,13,12,58,9.60
2006,12,13,12,59,9.60
2006,12,13,13,00,9.70
2006,12,13,13,01,9.70
2006,12,13,13,02,9.70
2006,12,13,13,03,9.70
2006,12,13,13,04,9.80
2006,12,13,13,05,9.80
2006,12,13,15,11,8.80
2006,12,13,15,12,8.80
2006,12,13,15,13,8.80
2006,12,13,15,14,8.80
2006,12,13,15,15,8.80
2006,12,13,15,16,8.80
2006,12,13,15,17,8.80
2006,12,13,15,18,8.80
2006,12,13,15,19,8.80
2006,12,13,15,20,8.80
2006,12,13,15,21,8.80
2006,12,13,15,22,8.80
2006,12,13,15,23,8.80
2006,12,13,15,24,8.80
2006,12,13,15,25,8.70
2006,12,13,15,26,8.70
2006,12,13,15,27,8.70
2006,12,13,15,28,8.60
2006,12,13,15,29,8.60
2006,12,13,15,30,8.60
2006,12,13,15,31,8.60
2006,12,13,15,32,8.60
2006,12,13,15,33,8.70
2006,12,13,15,34,8.70
2006,12,13,15,35,8.70
2006,12,13,15,36,8.70
2006,12,13,15,37,8.70
2006,12,13,15,38,8.70
2006,12,13,15,39,8.70
2006,12,13,15,40,8.70
2006,12,13,15,41,8.70
2006,12,13,15,42,8.60
2006,12,13,15,43,8.60
2006,12,13,15,44,8.60
2006,12,13,15,45,8.60
2006,12,13,15,46,8.60
2006,12,13,15,47,8.60
2006,12,13,15,48,8.60
2006,12,13,15,49,8.60
2006,12,13,15,50,8.60
2006,12,13,15,51,8.60
2006,12,13,15,52,8.60
2006,12,13,15,53,8.50
2006,12,13,15,54,8.50
2006,12,13,15,55,8.50
2006,12,13,15,56,8.50
2006,12,13,15,57,8.40
2006,12,13,15,58,8.40
2006,12,13,15,59,8.40
2006,12,13,16,00,8.40
2006,12,13,16,01,8.40
2006,12,13,16,02,8.40
2006,12,13,16,03,8.40
2006,12,13,16,04,8.50
2006,12,13,16,05,8.50
2006,12,13,16,06,8.50
2006,12,13,16,07,8.50
2006,12,13,16,08,8.60
2006,12,13,16,09,8.50
2006,12,13,16,10,8.50
2006,12,13,16,11,8.40
2006,12,13,16,12,8.40
2006,12,13,16,13,8.40
2006,12,13,16,14,8.30
2006,12,13,16,15,8.20
2006,12,13,16,16,8.20
2006,12,13,16,17,8.00
2006,12,13,16,18,7.80
2006,12,13,16,19,7.70
2006,12,13,16,20,7.60
2006,12,13,16,21,7.50
2006,12,13,16,22,7.40
2006,12,13,16,23,7.30
2006,12,13,16,24,7.20
2006,12,13,16,25,7.00
2006,12,13,16,26,6.90
2006,12,13,16,27,6.80
2006,12,13,16,28,6.60
2006,12,13,16,29,6.50
2006,12,13,16,30,6.30
2006,12,13,16,31,6.10
2006,12,13,16,32,6.00
2006,12,13,16,33,5.90
2006,12,13,16,34,5.80
2006,12,13,16,35,5.80
2006,12,13,16,36,5.70
2006,12,13,16,37,5.70
2006,12,13,16,38,5.60
2006,12,13,16,39,5.60
2006,12,13,16,40,5.60
2006,12,13,16,41,5.60
2006,12,13,16,42,5.60
2006,12,13,16,43,5.70
2006,12,13,16,44,5.70
2006,12,13,16,45,5.80
2006,12,13,16,46,5.80
2006,12,13,16,47,5.80
2006,12,13,16,48,5.80
2006,12,13,16,49,5.90
2006,12,13,16,50,5.90
2006,12,13,16,51,5.90
2006,12,13,16,52,5.90
2006,12,13,16,53,5.80
2006,12,13,16,54,5.80
2006,12,13,16,55,5.90
2006,12,13,16,56,5.90
2006,12,13,16,57,5.90
2006,12,13,16,58,5.90
2006,12,13,16,59,5.80
2006,12,13,17,00,5.80
2006,12,13,17,01,5.70
2006,12,13,17,02,5.70
2006,12,13,17,03,5.80
2006,12,13,17,04,5.80
2006,12,13,17,05,5.80
2006,12,13,17,06,5.80
2006,12,13,17,07,5.80
2006,12,13,17,08,5.80
2006,12,13,17,09,5.80
2006,12,13,17,10,5.90
2006,12,13,17,11,5.90
2006,12,13,17,12,5.90
2006,12,13,17,13,5.90
2006,12,13,17,14,5.80
2006,12,13,17,15,5.80
2006,12,13,17,16,5.80
2006,12,13,17,17,5.90
2006,12,13,17,18,6.00
2006,12,13,17,19,5.90
2006,12,13,17,20,5.90
2006,12,13,17,21,5.80
2006,12,13,17,22,5.70
2006,12,13,17,23,5.80
2006,12,13,17,24,5.80
2006,12,13,17,25,5.90
2006,12,13,17,26,5.90
2006,12,13,17,27,6.00
2006,12,13,17,28,6.00
2006,12,13,17,29,5.90
2006,12,13,17,30,5.90
2006,12,13,17,31,5.90
2006,12,13,17,32,5.80
2006,12,13,17,33,5.80
2006,12,13,17,34,5.80
2006,12,13,17,35,5.80
2006,12,13,17,36,5.80
2006,12,13,17,37,5.70
2006,12,13,17,38,5.70
2006,12,13,17,39,5.60
2006,12,13,17,40,5.60
2006,12,13,17,41,5.60
2006,12,13,17,42,5.60
2006,12,13,17,43,5.60
2006,12,13,17,44,5.60
2006,12,13,17,45,5.60
2006,12,13,17,46,5.60
2006,12,13,17,47,5.60
2006,12,13,17,48,5.50
2006,12,13,17,49,5.40
2006,12,13,17,50,5.40
2006,12,13,17,51,5.30
2006,12,13,17,52,5.30
2006,12,13,17,53,5.20
2006,12,13,17,54,5.20
2006,12,13,17,55,5.20
2006,12,13,17,56,5.20
2006,12,13,17,57,5.20
2006,12,13,17,58,5.10
2006,12,13,17,59,5.10
2006,12,13,18,00,5.10
2006,12,13,18,01,5.10
2006,12,13,18,02,5.10
2006,12,13,18,03,5.10
2006,12,13,18,04,5.10
2006,12,13,18,05,5.20
2006,12,13,18,06,5.30
2006,12,13,18,07,5.30
2006,12,13,18,08,5.30
2006,12,13,18,09,5.30
2006,12,13,18,10,5.40
2006,12,13,18,11,5.40
2006,12,13,18,12,5.40
2006,12,13,18,13,5.50
2006,12,13,18,14,5.60
2006,12,13,18,15,5.70
2006,12,13,18,16,5.70
2006,12,13,18,17,5.70
2006,12,13,18,18,5.80
2006,12,13,18,19,5.80
2006,12,13,18,20,5.90
2006,12,13,18,21,5.90
2006,12,13,18,22,5.90
2006,12,13,18,23,5.90
2006,12,13,18,24,5.90
2006,12,13,18,25,6.00
2006,12,13,18,26,6.00
2006,12,13,18,27,6.00
2006,12,13,18,28,6.00
2006,12,13,18,29,6.00
2006,12,13,18,30,6.00
2006,12,13,18,31,6.00
2006,12,13,18,32,5.90
2006,12,13,18,33,5.90
2006,12,13,18,34,5.90
2006,12,13,18,35,5.90
2006,12,13,18,36,5.90
2006,12,13,18,37,6.00
2006,12,13,18,38,6.00
2006,12,13,18,39,6.10
2006,12,13,18,40,6.10
2006,12,13,18,41,6.10
2006,12,13,18,42,6.10
2006,12,13,18,43,6.10
2006,12,13,18,44,6.10
2006,12,13,18,45,6.00
2006,12,13,18,46,6.00
2006,12,13,18,47,5.90
2006,12,13,18,48,5.90
2006,12,13,18,49,5.90
2006,12,13,18,50,5.80
2006,12,13,18,51,5.90
2006,12,13,18,52,5.90
2006,12,13,18,53,5.90
2006,12,13,18,54,5.80
2006,12,13,18,55,5.80
2006,12,13,18,56,5.80
2006,12,13,18,57,5.80
2006,12,13,18,58,5.80
2006,12,13,18,59,5.80
2006,12,13,19,00,5.80
2006,12,13,19,01,5.80
2006,12,13,19,02,5.80
2006,12,13,19,03,5.80
2006,12,13,19,04,5.90
2006,12,13,19,05,5.90
2006,12,13,19,06,6.00
2006,12,13,19,07,6.00
2006,12,13,19,08,6.00
2006,12,13,19,09,6.00
2006,12,13,19,10,6.00
2006,12,13,19,11,6.00
2006,12,13,19,12,6.00
2006,12,13,19,13,6.00
2006,12,13,19,14,6.00
2006,12,13,19,15,6.10
2006,12,13,19,16,6.20
2006,12,13,19,17,6.20
2006,12,13,19,18,6.20
2006,12,13,19,19,6.20
2006,12,13,19,20,6.30
2006,12,13,19,21,6.40
2006,12,13,19,22,6.50
2006,12,13,19,23,6.50
2006,12,13,19,24,6.60
2006,12,13,19,25,6.60
2006,12,13,19,26,6.60
2006,12,13,19,27,6.60
2006,12,13,19,28,6.60
2006,12,13,19,29,6.60
2006,12,13,19,30,6.60
2006,12,13,19,31,6.70
2006,12,13,19,32,6.70
2006,12,13,19,33,6.70
2006,12,13,19,34,6.80
2006,12,13,19,35,6.80
2006,12,13,19,36,6.80
2006,12,13,19,37,6.80
2006,12,13,19,38,6.70
2006,12,13,19,39,6.70
2006,12,13,19,40,6.70
2006,12,13,19,41,6.60
2006,12,13,19,42,6.60
2006,12,13,19,43,6.60
2006,12,13,19,44,6.60
2006,12,13,19,45,6.60
2006,12,13,19,46,6.60
2006,12,13,19,47,6.50
2006,12,13,19,48,6.50
2006,12,13,19,49,6.40
2006,12,13,19,50,6.30
2006,12,13,19,51,6.30
2006,12,13,19,52,6.30
2006,12,13,19,53,6.30
2006,12,13,19,54,6.20
2006,12,13,19,55,6.20
2006,12,13,19,56,6.20
2006,12,13,19,57,6.20
2006,12,13,19,58,6.20
2006,12,13,19,59,6.20
2006,12,13,20,00,6.20
2006,12,13,20,01,6.20
2006,12,13,20,02,6.20
2006,12,13,20,03,6.30
2006,12,13,20,04,6.30
2006,12,13,20,05,6.30
2006,12,13,20,06,6.40
2006,12,13,20,07,6.40
2006,12,13,20,08,6.40
2006,12,13,20,09,6.40
2006,12,13,20,10,6.40
2006,12,13,20,11,6.40
2006,12,13,20,12,6.40
2006,12,13,20,13,6.50
2006,12,13,20,14,6.50
2006,12,13,20,15,6.50
2006,12,13,20,16,6.50
2006,12,13,20,17,6.50
2006,12,13,20,18,6.50
2006,12,13,20,19,6.60
2006,12,13,20,20,6.70
2006,12,13,20,21,6.70
2006,12,13,20,22,6.70
2006,12,13,20,23,6.80
2006,12,13,20,24,6.70
2006,12,13,20,25,6.70
2006,12,13,20,26,6.70
2006,12,13,20,27,6.60
2006,12,13,20,28,6.60
2006,12,13,20,29,6.60
2006,12,13,20,30,6.50
2006,12,13,20,31,6.40
2006,12,13,20,32,6.30
2006,12,13,20,33,6.30
2006,12,13,20,34,6.20
2006,12,13,20,35,6.20
2006,12,13,20,36,6.20
2006,12,13,20,37,6.20
2006,12,13,20,38,6.20
2006,12,13,20,39,6.20
2006,12,13,20,40,6.20
2006,12,13,20,41,6.10
2006,12,13,20,42,6.00
2006,12,13,20,43,6.00
2006,12,13,20,44,5.90
2006,12,13,20,45,5.90
2006,12,13,20,46,5.90
2006,12,13,20,47,5.90
2006,12,13,20,48,5.90
2006,12,13,20,49,5.90
2006,12,13,20,50,5.90
2006,12,13,20,51,5.90
2006,12,13,20,52,5.90
2006,12,13,20,53,5.90
2006,12,13,20,54,5.90
2006,12,13,20,55,5.90
2006,12,13,20,56,5.90
2006,12,13,20,57,5.90
2006,12,13,20,58,5.90
2006,12,13,20,59,5.90
2006,12,13,21,00,5.90
2006,12,13,21,01,5.90
2006,12,13,21,02,5.90
2006,12,13,21,03,5.90
2006,12,13,21,04,5.90
2006,12,13,21,05,5.90
2006,12,13,21,06,5.90
2006,12,13,21,07,6.00
2006,12,13,21,08,6.00
2006,12,13,21,09,6.00
2006,12,13,21,10,6.00
2006,12,13,21,11,6.00
2006,12,13,21,12,5.90
2006,12,13,21,13,5.90
2006,12,13,21,14,5.90
2006,12,13,21,15,5.90
2006,12,13,21,16,5.90
2006,12,13,21,17,5.90
2006,12,13,21,18,5.80
2006,12,13,21,19,5.80
2006,12,13,21,20,5.80
2006,12,13,21,21,5.80
2006,12,13,21,22,5.70
2006,12,13,21,23,5.70
2006,12,13,21,24,5.70
2006,12,13,21,25,5.70
2006,12,13,21,26,5.70
2006,12,13,21,27,5.70
2006,12,13,21,28,5.80
2006,12,13,21,29,5.80
2006,12,13,21,30,5.80
2006,12,13,21,31,5.80
2006,12,13,21,32,5.80
2006,12,13,21,33,5.80
2006,12,13,21,34,5.80
2006,12,13,21,35,5.90
2006,12,13,21,36,5.90
2006,12,13,21,37,5.90
2006,12,13,21,38,5.90
2006,12,13,21,39,5.90
2006,12,13,21,40,5.80
2006,12,13,21,41,5.80
2006,12,13,21,42,5.70
2006,12,13,21,43,5.60
2006,12,13,21,44,5.60
2006,12,13,21,45,5.50
2006,12,13,21,46,5.40
2006,12,13,21,47,5.40
2006,12,13,21,48,5.30
2006,12,13,21,49,5.20
2006,12,13,21,50,5.20
2006,12,13,21,51,5.20
2006,12,13,21,52,5.10
2006,12,13,21,53,5.10
2006,12,13,21,54,5.10
2006,12,13,21,55,5.00
2006,12,13,21,56,4.90
2006,12,13,21,57,4.90
2006,12,13,21,58,4.80
2006,12,13,21,59,4.80
2006,12,13,22,00,4.70
2006,12,13,22,01,4.60
2006,12,13,22,02,4.60
2006,12,13,22,03,4.50
2006,12,13,22,04,4.40
2006,12,13,22,05,4.40
2006,12,13,22,06,4.40
2006,12,13,22,07,4.30
2006,12,13,22,08,4.30
2006,12,13,22,09,4.30
2006,12,13,22,10,4.30
2006,12,13,22,11,4.20
2006,12,13,22,12,4.20
2006,12,13,22,13,4.20
2006,12,13,22,14,4.10
2006,12,13,22,15,4.10
2006,12,13,22,16,4.00
2006,12,13,22,17,4.00
2006,12,13,22,18,3.90
2006,12,13,22,19,3.90
2006,12,13,22,20,3.80
2006,12,13,22,21,3.80
2006,12,13,22,22,3.80
2006,12,13,22,23,3.70
2006,12,13,22,24,3.70
2006,12,13,22,25,3.70
2006,12,13,22,26,3.70
2006,12,13,22,27,3.60
2006,12,13,22,28,3.60
2006,12,13,22,29,3.60
2006,12,13,22,30,3.60
2006,12,13,22,31,3.60
2006,12,13,22,32,3.50
2006,12,13,22,33,3.50
2006,12,13,22,34,3.50
2006,12,13,22,35,3.40
2006,12,13,22,36,3.40
2006,12,13,22,37,3.40
2006,12,13,22,38,3.40
2006,12,13,22,39,3.40
2006,12,13,22,40,3.40
2006,12,13,22,41,3.40
2006,12,13,22,42,3.40
2006,12,13,22,43,3.40
2006,12,13,22,44,3.40
2006,12,13,22,45,3.40
2006,12,13,22,46,3.40
2006,12,13,22,47,3.40
2006,12,13,22,48,3.40
2006,12,13,22,49,3.30
2006,12,13,22,50,3.30
2006,12,13,22,51,3.30
2006,12,13,22,52,3.30
2006,12,13,22,53,3.30
2006,12,13,22,54,3.30
2006,12,13,22,55,3.30
2006,12,13,22,56,3.30
2006,12,13,22,57,3.20
2006,12,13,22,58,3.20
2006,12,13,22,59,3.20
2006,12,13,23,00,3.20
2006,12,13,23,01,3.20
2006,12,13,23,02,3.20
2006,12,13,23,03,3.20
2006,12,13,23,04,3.20
2006,12,13,23,05,3.10
2006,12,13,23,06,3.10
2006,12,13,23,07,3.10
2006,12,13,23,08,3.10
2006,12,13,23,09,3.00
2006,12,13,23,10,3.00
2006,12,13,23,11,3.00
2006,12,13,23,12,2.90
2006,12,13,23,13,2.90